Вернуться в каталог

COSMOS 2465

GLONASS

АктивенНавигацияMEO
NORAD 37138·PAYLOAD·🇷🇺 Russia

Запущен Sep 2, 2010 с Baikonur Cosmodrome

Loading…

Ближайшие Пролёты (ближайшие 24 часа)

TLE

СвежийSource: Space-Track

Эпоха: Sep 12, 2026, 14:21 UTC

1 37138U 10041B   26255.59795554  .00000008  00000-0  00000-0 0  9995
2 37138  63.9108 187.2487 0041121 181.5170   7.2114  2.13098344124725

Отслеживайте COSMOS 2465 в реальном времени с AllMySat

Download on the App Store